| time (UTC) | temp C | wind direction | speed KPH | gust KPH | rain 1hr cm | rain 24hr cm | rain mn cm | humidity % | barometer mb |
| 20260508013045 | 23 | 207 | 9.7 | 17.7 | 0.00 | 0.00 | 0.00 | 26 | 1018.6 |
| 20260508011600 | 23 | 250 | 8.0 | 20.9 | 0.00 | 0.00 | 0.00 | 27 | 1018.5 |
| 20260508010043 | 23 | 196 | 11.3 | 24.1 | 0.00 | 0.00 | 0.00 | 25 | 1018.5 |
| 20260508004542 | 23 | 229 | 9.7 | 24.1 | 0.00 | 0.00 | 0.00 | 25 | 1018.4 |
| 20260508003045 | 23 | 192 | 14.5 | 25.7 | 0.00 | 0.00 | 0.00 | 24 | 1018.5 |
| 20260508001545 | 24 | 259 | 12.9 | 25.7 | 0.00 | 0.00 | 0.00 | 25 | 1018.4 |
| 20260508000045 | 24 | 261 | 12.9 | 27.4 | 0.00 | 0.00 | 0.00 | 24 | 1018.5 |
| 20260507234548 | 24 | 203 | 14.5 | 25.7 | 0.00 | 0.00 | 0.00 | 24 | 1018.5 |
| 20260507233040 | 25 | 242 | 6.4 | 27.4 | 0.00 | 0.00 | 0.00 | 24 | 1018.4 |
| 20260507231546 | 25 | 246 | 9.7 | 29.0 | 0.00 | 0.00 | 0.00 | 23 | 1018.5 |
| 20260507230047 | 25 | 203 | 12.9 | 29.0 | 0.00 | 0.00 | 0.00 | 23 | 1018.5 |
| 20260507224545 | 25 | 228 | 11.3 | 20.9 | 0.00 | 0.00 | 0.00 | 24 | 1018.7 |
| 20260507223044 | 25 | 234 | 11.3 | 32.2 | 0.00 | 0.00 | 0.00 | 28 | 1018.7 |
| 20260507221539 | 25 | 245 | 12.9 | 25.7 | 0.00 | 0.00 | 0.00 | 27 | 1018.8 |
| 20260507220046 | 25 | 248 | 14.5 | 25.7 | 0.00 | 0.00 | 0.00 | 28 | 1018.9 |
| 20260507214543 | 25 | 189 | 11.3 | 27.4 | 0.00 | 0.00 | 0.00 | 25 | 1019.0 |
| 20260507213048 | 25 | 195 | 14.5 | 27.4 | 0.00 | 0.00 | 0.00 | 27 | 1019.0 |
| 20260507211547 | 24 | 250 | 14.5 | 30.6 | 0.00 | 0.00 | 0.00 | 25 | 1019.2 |
| 20260507210044 | 25 | 251 | 11.3 | 25.7 | 0.00 | 0.00 | 0.00 | 28 | 1019.3 |
| 20260507204543 | 25 | 249 | 12.9 | 30.6 | 0.00 | 0.00 | 0.00 | 25 | 1019.3 |
| 20260507203046 | 25 | 254 | 8.0 | 27.4 | 0.00 | 0.00 | 0.00 | 25 | 1019.4 |
| 20260507201544 | 24 | 259 | 8.0 | 24.1 | 0.00 | 0.00 | 0.00 | 25 | 1019.5 |
| 20260507200043 | 24 | 261 | 9.7 | 24.1 | 0.00 | 0.00 | 0.00 | 27 | 1019.7 |
| 20260507194541 | 23 | 338 | 6.4 | 24.1 | 0.00 | 0.00 | 0.00 | 27 | 1019.8 |
| 20260507193049 | 23 | 263 | 11.3 | 22.5 | 0.00 | 0.00 | 0.00 | 27 | 1020.1 |
| 20260507191539 | 23 | 104 | 1.6 | 16.1 | 0.00 | 0.00 | 0.00 | 29 | 1020.1 |
| 20260507190046 | 23 | 265 | 6.4 | 12.9 | 0.00 | 0.00 | 0.00 | 30 | 1020.3 |
| 20260507184544 | 23 | 308 | 9.7 | 19.3 | 0.00 | 0.00 | 0.00 | 31 | 1020.6 |
| 20260507183043 | 23 | 306 | 4.8 | 14.5 | 0.00 | 0.00 | 0.00 | 33 | 1020.6 |
| 20260507181547 | 22 | 255 | 0.0 | 11.3 | 0.00 | 0.00 | 0.00 | 36 | 1020.6 |
| 20260507180048 | 21 | 329 | 3.2 | 8.0 | 0.00 | 0.00 | 0.00 | 37 | 1020.7 |
| 20260507174557 | 21 | 347 | 1.6 | 11.3 | 0.00 | 0.00 | 0.00 | 41 | 1020.7 |
| 20260507173046 | 21 | 287 | 0.0 | 6.4 | 0.00 | 0.00 | 0.00 | 43 | 1020.8 |
| 20260507171555 | 19 | 262 | 3.2 | 8.0 | 0.00 | 0.00 | 0.00 | 47 | 1020.9 |
| 20260507170050 | 18 | 0 | 0.0 | 9.7 | 0.00 | 0.00 | 0.00 | 48 | 1021.0 |
| 20260507164545 | 17 | 0 | 0.0 | 6.4 | 0.00 | 0.00 | 0.00 | 50 | 1021.1 |
| 20260507163043 | 16 | 197 | 3.2 | 11.3 | 0.00 | 0.00 | 0.00 | 50 | 1021.2 |
| 20260507161547 | 16 | 0 | 0.0 | 4.8 | 0.00 | 0.00 | 0.00 | 50 | 1021.1 |
| 20260507160044 | 15 | 0 | 0.0 | 6.4 | 0.00 | 0.00 | 0.00 | 54 | 1021.1 |
| 20260507154539 | 13 | 0 | 0.0 | 0.0 | 0.00 | 0.00 | 0.00 | 57 | 1021.3 |
| 20260507153039 | 12 | 0 | 0.0 | 0.0 | 0.00 | 0.00 | 0.00 | 60 | 1021.3 |
| 20260507151544 | 12 | 0 | 0.0 | 4.8 | 0.00 | 0.00 | 0.00 | 64 | 1021.3 |
| 20260507150043 | 11 | 0 | 0.0 | 0.0 | 0.00 | 0.00 | 0.00 | 64 | 1021.4 |
| 20260507144607 | 10 | 0 | 0.0 | 0.0 | 0.00 | 0.00 | 0.00 | 75 | 1021.5 |
| 20260507143048 | 8 | 0 | 0.0 | 0.0 | 0.00 | 0.00 | 0.00 | 78 | 1021.5 |
| 20260507141602 | 7 | 0 | 0.0 | 0.0 | 0.00 | 0.00 | 0.00 | 79 | 1021.5 |
| 20260507140042 | 7 | 0 | 0.0 | 0.0 | 0.00 | 0.00 | 0.00 | 81 | 1021.4 |
| 20260507134544 | 6 | 0 | 0.0 | 0.0 | 0.00 | 0.00 | 0.00 | 82 | 1021.3 |
| 20260507133047 | 6 | 0 | 0.0 | 0.0 | 0.00 | 0.00 | 0.00 | 82 | 1021.3 |
| 20260507131541 | 6 | 0 | 0.0 | 0.0 | 0.00 | 0.00 | 0.00 | 82 | 1021.2 |
| 20260507130039 | 6 | 0 | 0.0 | 0.0 | 0.00 | 0.00 | 0.00 | 80 | 1021.2 |
| 20260507124544 | 6 | 0 | 0.0 | 0.0 | 0.00 | 0.00 | 0.00 | 79 | 1021.1 |
| 20260507123040 | 6 | 0 | 0.0 | 0.0 | 0.00 | 0.00 | 0.00 | 80 | 1021.0 |
| 20260507121542 | 7 | 0 | 0.0 | 0.0 | 0.00 | 0.00 | 0.00 | 81 | 1021.1 |
| 20260507120047 | 7 | 0 | 0.0 | 0.0 | 0.00 | 0.00 | 0.00 | 82 | 1021.0 |
| 20260507114543 | 7 | 0 | 0.0 | 0.0 | 0.00 | 0.00 | 0.00 | 81 | 1020.9 |
| 20260507113041 | 7 | 0 | 0.0 | 0.0 | 0.00 | 0.00 | 0.00 | 79 | 1020.9 |
| 20260507111543 | 7 | 0 | 0.0 | 0.0 | 0.00 | 0.00 | 0.00 | 80 | 1020.8 |
| 20260507110047 | 7 | 0 | 0.0 | 0.0 | 0.00 | 0.00 | 0.00 | 80 | 1020.9 |
| 20260507104546 | 7 | 0 | 0.0 | 0.0 | 0.00 | 0.00 | 0.00 | 81 | 1021.0 |
| 20260507103044 | 7 | 0 | 0.0 | 0.0 | 0.00 | 0.00 | 0.00 | 81 | 1020.8 |
| 20260507101547 | 7 | 0 | 0.0 | 0.0 | 0.00 | 0.00 | 0.00 | 80 | 1021.0 |
| 20260507100043 | 8 | 0 | 0.0 | 4.8 | 0.00 | 0.00 | 0.00 | 72 | 1021.0 |
| 20260507094546 | 8 | 0 | 0.0 | 4.8 | 0.00 | 0.00 | 0.00 | 70 | 1021.1 |
| 20260507093048 | 8 | 9 | 3.2 | 8.0 | 0.00 | 0.00 | 0.00 | 69 | 1021.3 |
| 20260507091544 | 8 | 16 | 1.6 | 6.4 | 0.00 | 0.00 | 0.00 | 70 | 1021.4 |
| 20260507090040 | 10 | 0 | 0.0 | 0.0 | 0.00 | 0.00 | 0.00 | 69 | 1021.4 |
| 20260507084544 | 10 | 0 | 0.0 | 0.0 | 0.00 | 0.00 | 0.00 | 67 | 1021.4 |
| 20260507083039 | 10 | 0 | 0.0 | 3.2 | 0.00 | 0.00 | 0.00 | 69 | 1021.4 |
| 20260507081545 | 10 | 86 | 0.0 | 4.8 | 0.00 | 0.00 | 0.00 | 67 | 1021.3 |
| 20260507080045 | 10 | 0 | 0.0 | 0.0 | 0.00 | 0.00 | 0.00 | 68 | 1021.3 |
| 20260507074541 | 10 | 0 | 0.0 | 0.0 | 0.00 | 0.00 | 0.00 | 70 | 1021.4 |
| 20260507073044 | 10 | 0 | 0.0 | 0.0 | 0.00 | 0.00 | 0.00 | 71 | 1021.5 |
| 20260507071543 | 10 | 0 | 0.0 | 0.0 | 0.00 | 0.00 | 0.00 | 70 | 1021.5 |
| 20260507070046 | 11 | 0 | 0.0 | 0.0 | 0.00 | 0.00 | 0.00 | 68 | 1021.5 |
| 20260507064544 | 11 | 0 | 0.0 | 0.0 | 0.00 | 0.00 | 0.00 | 68 | 1021.4 |
| 20260507063048 | 11 | 0 | 0.0 | 0.0 | 0.00 | 0.00 | 0.00 | 66 | 1021.3 |
| 20260507061542 | 12 | 0 | 0.0 | 0.0 | 0.00 | 0.00 | 0.00 | 67 | 1021.2 |
| 20260507060050 | 12 | 0 | 0.0 | 0.0 | 0.00 | 0.00 | 0.00 | 64 | 1021.1 |
| 20260507054546 | 12 | 0 | 0.0 | 3.2 | 0.00 | 0.00 | 0.00 | 62 | 1021.0 |
| 20260507053052 | 14 | 0 | 0.0 | 6.4 | 0.00 | 0.00 | 0.00 | 57 | 1021.0 |
| 20260507051540 | 16 | 0 | 1.6 | 11.3 | 0.00 | 0.00 | 0.00 | 56 | 1021.0 |
| 20260507050039 | 17 | 281 | 0.0 | 11.3 | 0.00 | 0.00 | 0.00 | 53 | 1021.0 |
| 20260507044555 | 18 | 257 | 6.4 | 17.7 | 0.00 | 0.00 | 0.00 | 53 | 1020.7 |
| 20260507043044 | 17 | 0 | 1.6 | 6.4 | 0.00 | 0.00 | 0.00 | 51 | 1020.7 |
| 20260507041548 | 18 | 0 | 1.6 | 16.1 | 0.00 | 0.00 | 0.00 | 49 | 1020.5 |
| 20260507040042 | 18 | 296 | 3.2 | 20.9 | 0.00 | 0.00 | 0.00 | 51 | 1020.2 |
| 20260507034545 | 19 | 257 | 9.7 | 19.3 | 0.00 | 0.00 | 0.00 | 46 | 1020.0 |
| 20260507033044 | 19 | 265 | 6.4 | 17.7 | 0.00 | 0.00 | 0.00 | 37 | 1019.8 |
| 20260507031547 | 18 | 280 | 3.2 | 9.7 | 0.00 | 0.00 | 0.00 | 35 | 1019.7 |
| 20260507030053 | 19 | 0 | 0.0 | 11.3 | 0.00 | 0.00 | 0.00 | 36 | 1019.5 |
| 20260507024549 | 20 | 236 | 1.6 | 12.9 | 0.00 | 0.00 | 0.00 | 34 | 1019.3 |
| 20260507023040 | 21 | 236 | 4.8 | 9.7 | 0.00 | 0.00 | 0.00 | 36 | 1019.3 |
| 20260507021539 | 23 | 202 | 1.6 | 11.3 | 0.00 | 0.00 | 0.00 | 36 | 1019.2 |
| 20260507020048 | 23 | 248 | 3.2 | 12.9 | 0.00 | 0.00 | 0.00 | 29 | 1019.2 |
| 20260507014544 | 23 | 272 | 4.8 | 14.5 | 0.00 | 0.00 | 0.00 | 26 | 1019.2 |